{"data":{"norad_id":60556,"epoch":"2026-09-22T17:28:36.855840Z","epoch_age_seconds":96475,"freshness":"FRESH","line1":"1 60556U 24149CS  26265.72820435  .00045243  00000+0  54297-3 0  9991","line2":"2 60556  97.3672 355.7937 0001625 220.5505 139.5631 15.60778934117681","mean_motion":15.60778934,"eccentricity":0.0001625,"inclination_deg":97.3672,"raan_deg":355.7937,"arg_perigee_deg":220.5505,"mean_anomaly_deg":139.5631,"bstar":0.00054297,"rev_number":11768,"period_min":92.261624540865,"perigee_km":384.30675926497,"apogee_km":386.50491068634,"semimajor_km":6763.5428349757,"source":"CELESTRAK","updated_at":"2026-09-23T09:00:20.700078Z"}}